Location: Detroit
(42.3310°N, 83.0460°W)
Time: 08:04:17
(UTC-04:00)

Explorer 11/Cluster Stage 4 - Pass Details

Date: 12 February 2023
Orbit: 466 x 1241 km, 28.8° (Epoch: 02 April)

Event Time Altitude Azimuth Distance (km) Brightness Sun altitude
Exits shadow 04:43:57 23° 172° (S) 2,092 8.6 -31.7°
Drops below altitude 10° 04:48:35 10° 136° (SE) 3,041 9.9 -30.9°
Sets 04:52:10 0° 123° (ESE) 4,086 10.9 -30.2°
